MM0ZIF Weather Reports


time (UTC)temp
C
wind
direction
speed
KPH
gust
KPH
rain 1hr
cm
rain 24hr
cm
rain mn
cm
humidity
%
barometer
mb
20260506124508 9 113 4.8 12.9 0.00 0.00 0.00 59 1007.7
20260506124009 9 134 4.8 14.5 0.00 0.00 0.00 55 1007.9
20260506123508 9 75 4.8 12.9 0.00 0.00 0.00 58 1007.9
20260506123008 8 127 6.4 14.5 0.00 0.00 0.00 61 1008.1
20260506122508 8 104 8.0 16.1 0.00 0.00 0.00 60 1008.0
20260506122008 8 69 4.8 14.5 0.00 0.00 0.00 60 1008.1
20260506121509 8 92 4.8 12.9 0.00 0.00 0.00 61 1008.0
20260506121009 8 139 8.0 19.3 0.00 0.00 0.00 62 1008.2
20260506120508 8 105 6.4 14.5 0.00 0.00 0.00 60 1008.5
20260506115009 8 137 4.8 14.5 0.00 0.00 0.00 60 1008.4
20260506114508 8 76 4.8 11.3 0.00 0.00 0.00 62 1008.3
20260506114009 8 80 4.8 14.5 0.00 0.00 0.00 63 1008.4
20260506113508 9 76 8.0 14.5 0.00 0.00 0.00 62 1008.5
20260506113008 8 93 4.8 11.3 0.00 0.00 0.00 63 1008.5
20260506112009 8 126 6.4 14.5 0.00 0.00 0.00 66 1008.4
20260506111508 7 64 4.8 16.1 0.00 0.00 0.00 67 1008.4
20260506111008 8 85 4.8 16.1 0.00 0.00 0.00 65 1008.6
20260506110508 8 134 4.8 12.9 0.00 0.00 0.00 65 1008.6
20260506105508 8 51 4.8 11.3 0.00 0.00 0.00 66 1008.6
20260506105007 8 81 4.8 11.3 0.00 0.00 0.00 66 1008.7
20260506104008 8 67 4.8 11.3 0.00 0.00 0.00 66 1008.8
20260506103508 8 51 4.8 11.3 0.00 0.00 0.00 67 1008.8
20260506103008 8 78 3.2 8.0 0.00 0.00 0.00 65 1008.8
20260506102508 8 64 3.2 11.3 0.00 0.00 0.00 67 1009.0
20260506102008 8 93 3.2 11.3 0.00 0.00 0.00 65 1008.8
20260506101507 7 97 4.8 9.7 0.00 0.00 0.00 68 1008.8
20260506100508 7 113 3.2 8.0 0.00 0.00 0.00 69 1008.7
20260506100008 7 72 4.8 9.7 0.00 0.00 0.00 70 1008.9
20260506095507 7 99 4.8 11.3 0.00 0.00 0.00 71 1008.8
20260506095008 7 96 4.8 8.0 0.00 0.00 0.00 70 1009.1
20260506094508 7 110 3.2 9.7 0.00 0.00 0.00 69 1009.0
20260506094008 8 133 3.2 9.7 0.00 0.00 0.00 66 1009.0
20260506093008 8 71 0.0 1.6 0.00 0.00 0.00 57 1009.0
20260506092507 8 101 1.6 3.2 0.00 0.00 0.00 59 1009.2
20260506092007 8 46 0.0 1.6 0.00 0.00 0.00 61 1009.0
20260506091507 7 332 1.6 3.2 0.00 0.00 0.00 61 1009.1
20260506091007 8 76 1.6 3.2 0.00 0.00 0.00 65 1009.0
20260506090007 8 93 1.6 3.2 0.00 0.00 0.00 64 1009.1
20260506085507 8 61 0.0 1.6 0.00 0.00 0.00 68 1009.3
20260506084508 7 121 1.6 3.2 0.00 0.00 0.00 69 1009.6
20260506084008 7 147 0.0 1.6 0.00 0.00 0.00 71 1009.5
20260506083507 7 116 0.0 3.2 0.00 0.00 0.00 71 1009.3
20260506083008 7 56 0.0 1.6 0.00 0.00 0.00 72 1009.5
20260506082508 7 297 0.0 1.6 0.00 0.00 0.00 73 1009.5
20260506081508 7 325 0.0 3.2 0.00 0.00 0.00 72 1009.4
20260506081007 7 75 0.0 3.2 0.00 0.00 0.00 73 1009.3
20260506080508 7 138 0.0 1.6 0.00 0.00 0.00 72 1009.5
20260506073507 7 98 0.0 3.2 0.00 0.00 0.00 76 1009.5
20260506072507 7 140 0.0 1.6 0.00 0.00 0.00 77 1009.6
20260506072007 6 50 0.0 3.2 0.00 0.00 0.00 79 1009.6
20260506070507 6 231 0.0 1.6 0.00 0.00 0.00 80 1009.6
20260506062507 5 156 1.6 3.2 0.00 0.00 0.00 84 1009.6
20260506062007 4 157 0.0 1.6 0.00 0.00 0.00 84 1009.6
20260506061507 4 124 0.0 3.2 0.00 0.00 0.00 84 1009.7
20260506061007 4 148 0.0 1.6 0.00 0.00 0.00 85 1009.6
20260506051007 1 121 0.0 0.0 0.00 0.00 0.00 94 1010.0
20260506050507 1 85 0.0 0.0 0.00 0.00 0.00 94 1010.2
20260506045007 0 126 0.0 0.0 0.00 0.00 0.00 94 1010.1
20260506044507 0 138 0.0 0.0 0.00 0.00 0.00 94 1010.3
20260506043508 0 126 0.0 0.0 0.00 0.00 0.00 94 1010.3
20260506043006 0 129 0.0 1.6 0.00 0.00 0.00 94 1010.3
20260506042506 0 145 0.0 1.6 0.00 0.00 0.00 94 1010.4
20260506042006 0 124 0.0 1.6 0.00 0.00 0.00 94 1010.3
20260506041507 0 116 0.0 1.6 0.00 0.00 0.00 94 1010.4
20260506041006 0 68 0.0 1.6 0.00 0.00 0.00 94 1010.4
20260506040506 0 86 0.0 1.6 0.00 0.00 0.00 94 1010.4
20260506040006 0 71 0.0 1.6 0.00 0.00 0.00 94 1010.5
20260506035506 0 129 0.0 0.0 0.00 0.00 0.00 94 1010.6
20260506034506 0 108 0.0 0.0 0.00 0.00 0.00 94 1010.5
20260506033506 0 128 0.0 0.0 0.00 0.00 0.00 94 1010.6
20260506033006 0 128 0.0 0.0 0.00 0.03 0.00 94 1010.7
20260506032506 0 79 0.0 0.0 0.00 0.03 0.00 94 1010.8
20260506031506 0 160 0.0 1.6 0.00 0.03 0.00 94 1010.8
20260506030506 0 162 0.0 1.6 0.00 0.03 0.00 94 1010.9
20260506030006 0 118 0.0 0.0 0.00 0.03 0.00 94 1010.9
20260506025006 0 131 0.0 0.0 0.00 0.03 0.00 94 1010.8
20260506024507 0 146 0.0 0.0 0.00 0.03 0.00 94 1010.7
20260506024007 0 143 0.0 0.0 0.00 0.03 0.00 94 1011.0
20260506023506 0 122 0.0 0.0 0.00 0.03 0.00 94 1010.9
20260506023006 0 86 0.0 0.0 0.00 0.03 0.00 93 1010.8
20260506022506 0 85 0.0 0.0 0.00 0.03 0.00 93 1010.9
20260506022006 0 85 0.0 0.0 0.00 0.03 0.00 93 1011.0
20260506021506 0 81 0.0 0.0 0.00 0.03 0.00 93 1011.0
20260506021006 0 208 0.0 0.0 0.00 0.03 0.00 93 1011.1
20260506015506 0 156 0.0 0.0 0.00 0.03 0.00 92 1011.1
20260506015006 0 124 0.0 0.0 0.00 0.03 0.00 92 1011.3
20260506014506 0 124 0.0 0.0 0.00 0.03 0.00 92 1011.1
20260506014006 0 123 0.0 0.0 0.00 0.03 0.00 92 1011.3
20260506012506 0 159 0.0 0.0 0.00 0.03 0.00 91 1011.2
20260506012006 0 158 0.0 0.0 0.00 0.03 0.00 91 1011.4
20260506011506 0 158 0.0 0.0 0.00 0.03 0.00 90 1011.2
20260506011006 0 158 0.0 0.0 0.00 0.03 0.00 90 1011.3
20260506010506 0 158 0.0 0.0 0.00 0.03 0.00 90 1011.2
20260506010005 0 158 0.0 1.6 0.00 0.03 0.00 90 1011.3
20260506004006 1 165 0.0 0.0 0.00 0.03 0.00 90 1011.5
20260506003505 1 203 0.0 0.0 0.00 0.03 0.00 89 1011.4
20260506003006 1 274 0.0 0.0 0.00 0.03 0.00 89 1011.4
20260506002505 1 292 0.0 0.0 0.00 0.03 0.00 89 1011.5
20260506002006 1 292 0.0 0.0 0.00 0.03 0.00 89 1011.6
20260506001505 1 300 0.0 0.0 0.00 0.03 0.00 88 1011.5
20260506001005 1 300 0.0 0.0 0.00 0.03 0.00 88 1011.5
20260506000506 1 308 0.0 0.0 0.00 0.03 0.00 88 1011.7
20260506000005 1 128 0.0 1.6 0.00 0.03 0.00 88 1011.6
20260505235505 1 114 0.0 0.0 0.00 0.03 0.00 88 1011.6
20260505234006 1 99 0.0 0.0 0.00 0.03 0.00 88 1011.7
20260505233506 1 98 0.0 0.0 0.00 0.03 0.00 87 1011.9
20260505233006 1 98 0.0 0.0 0.00 0.03 0.00 87 1011.7
20260505232505 1 98 0.0 0.0 0.00 0.03 0.00 87 1011.7
20260505232006 1 153 0.0 1.6 0.00 0.03 0.00 87 1011.8
20260505231505 1 136 0.0 0.0 0.00 0.03 0.00 87 1011.8
20260505231005 1 102 0.0 0.0 0.00 0.03 0.00 87 1011.9
20260505230505 1 84 0.0 0.0 0.00 0.03 0.00 87 1011.9
20260505230006 1 83 0.0 0.0 0.00 0.03 0.00 86 1011.9
20260505225505 1 82 0.0 0.0 0.00 0.03 0.03 86 1011.9
20260505225005 1 111 0.0 0.0 0.00 0.03 0.03 86 1012.2
20260505224505 1 125 0.0 0.0 0.00 0.03 0.03 85 1012.1
20260505224005 1 125 0.0 0.0 0.00 0.03 0.03 85 1012.1
20260505223505 1 127 0.0 0.0 0.00 0.03 0.03 85 1012.1
20260505222505 1 148 0.0 3.2 0.00 0.03 0.03 83 1012.3
20260505221505 2 165 0.0 0.0 0.00 0.03 0.03 82 1012.3
20260505221005 2 151 0.0 1.6 0.00 0.03 0.03 82 1012.3
20260505220505 2 29 0.0 3.2 0.00 0.03 0.03 82 1012.2
20260505220005 2 232 1.6 3.2 0.00 0.03 0.03 82 1012.3
20260505215005 2 305 0.0 1.6 0.00 0.03 0.03 83 1012.2
20260505214505 2 169 0.0 1.6 0.00 0.03 0.03 83 1012.3
20260505213505 2 317 0.0 3.2 0.00 0.03 0.03 83 1012.5
20260505213005 2 332 1.6 3.2 0.00 0.03 0.03 83 1012.5
20260505212005 2 355 1.6 3.2 0.00 0.03 0.03 83 1012.4
20260505211505 3 316 0.0 1.6 0.00 0.03 0.03 84 1012.5
20260505210505 3 331 0.0 3.2 0.00 0.03 0.03 85 1012.4
20260505210005 3 320 0.0 1.6 0.00 0.03 0.03 84 1012.4
20260505205005 3 277 0.0 3.2 0.00 0.03 0.03 84 1012.5
20260505204505 3 323 0.0 3.2 0.00 0.03 0.03 84 1012.5
20260505204004 3 284 0.0 1.6 0.00 0.03 0.03 84 1012.8
20260505203004 3 207 0.0 1.6 0.00 0.03 0.03 84 1012.7
20260505202504 4 37 0.0 1.6 0.00 0.03 0.03 84 1012.8
20260505202004 4 278 0.0 1.6 0.00 0.03 0.03 83 1012.7
20260505201505 4 225 1.6 3.2 0.00 0.03 0.03 84 1012.7
20260505201004 4 262 1.6 3.2 0.00 0.03 0.03 83 1012.6
20260505200505 4 311 1.6 3.2 0.00 0.03 0.03 83 1012.6
20260505200005 4 297 1.6 4.8 0.00 0.03 0.03 83 1012.5
20260505195004 4 245 1.6 4.8 0.00 0.03 0.03 83 1012.4
20260505194504 4 297 3.2 4.8 0.00 0.03 0.03 82 1012.6
20260505193504 4 338 1.6 8.0 0.00 0.03 0.03 81 1012.6
20260505193004 5 273 1.6 4.8 0.00 0.03 0.03 80 1012.6
20260505192504 5 232 3.2 8.0 0.00 0.03 0.03 78 1012.6
20260505192004 6 284 4.8 8.0 0.00 0.03 0.03 75 1012.6
20260505190505 6 318 1.6 3.2 0.00 0.03 0.03 75 1012.7
20260505185504 6 313 1.6 3.2 0.00 0.03 0.03 75 1012.6
20260505185005 6 252 0.0 4.8 0.00 0.03 0.03 75 1012.7
20260505184504 5 311 1.6 3.2 0.00 0.03 0.03 75 1012.9
20260505182004 7 295 3.2 9.7 0.00 0.03 0.03 68 1012.5
20260505181004 7 289 1.6 11.3 0.00 0.03 0.03 67 1012.5
20260505180504 7 282 4.8 12.9 0.00 0.03 0.03 67 1012.6
20260505180004 7 296 3.2 8.0 0.00 0.03 0.03 65 1012.6
20260505175504 7 299 1.6 8.0 0.00 0.03 0.03 63 1012.7
20260505175004 8 307 3.2 11.3 0.00 0.03 0.03 59 1012.6
20260505174504 7 275 3.2 11.3 0.00 0.03 0.03 58 1012.5
20260505174004 8 17 3.2 9.7 0.00 0.03 0.03 56 1012.6
20260505173504 8 289 3.2 11.3 0.00 0.03 0.03 54 1012.6
20260505173004 8 93 3.2 8.0 0.00 0.03 0.03 55 1012.7
20260505172004 8 307 1.6 9.7 0.00 0.03 0.03 54 1012.5
20260505171504 8 311 4.8 12.9 0.00 0.03 0.03 53 1012.6
20260505171005 8 307 3.2 9.7 0.00 0.03 0.03 55 1012.6
20260505170504 8 296 3.2 9.7 0.00 0.03 0.03 57 1012.7
20260505170004 8 233 1.6 12.9 0.00 0.03 0.03 55 1012.6
20260505165503 8 130 3.2 12.9 0.00 0.03 0.03 55 1012.6
20260505165004 8 289 4.8 11.3 0.00 0.03 0.03 53 1012.5
20260505164009 9 315 3.2 9.7 0.00 0.03 0.03 52 1012.7
20260505163509 9 299 1.6 9.7 0.00 0.03 0.03 54 1012.6
20260505163010 9 301 3.2 11.3 0.00 0.03 0.03 53 1012.8
20260505162509 9 319 4.8 12.9 0.00 0.03 0.03 53 1012.7
20260505162010 9 280 3.2 11.3 0.00 0.03 0.03 53 1012.5
20260505161509 8 305 4.8 12.9 0.00 0.03 0.03 54 1012.6
20260505161010 9 320 4.8 16.1 0.00 0.03 0.03 54 1012.7
20260505160509 8 324 3.2 9.7 0.00 0.03 0.03 52 1012.7
20260505153012 7 324 1.6 11.3 0.00 0.03 0.03 59 1012.8
20260505152512 7 298 3.2 9.7 0.00 0.03 0.03 59 1012.8
20260505152011 7 282 3.2 12.9 0.00 0.03 0.03 60 1012.8
20260505151512 7 93 4.8 11.3 0.00 0.03 0.03 64 1012.8
20260505151010 7 129 4.8 14.5 0.00 0.03 0.03 62 1012.7
20260505150508 7 108 6.4 14.5 0.00 0.03 0.03 62 1012.9
20260505140510 8 105 1.6 8.0 0.00 0.03 0.03 54 1012.7
20260505125009 8 301 3.2 11.3 0.00 0.03 0.03 52 1012.6